START_TIME,STEP,MOV.,P11,t_acc.,P23,t_acc.,P27,t_acc.,A4,t_acc.
1979-08-06 15:00:21.610 ,1,0,4.,4.8,1.,4.8,0.,4.8,0.,4.8
1979-08-06 15:00:26.410 ,1,0,3.,4.8,1.,4.8,0.,4.8,0.,4.8
1979-08-06 15:00:31.210 ,1,0,1.,4.8,0.,4.8,0.,4.8,0.,4.8
1979-08-06 15:00:36.010 ,1,0,1.,4.8,0.,4.8,0.,4.8,0.,4.8
1979-08-06 15:00:40.810 ,1,0,0.,4.8,2.,4.8,0.,4.8,0.,4.8
1979-08-06 15:00:45.610 ,2,0,1.,4.8,2.,4.8,0.,4.8,0.,4.8
1979-08-06 15:00:50.410 ,2,0,1.,4.8,2.,4.8,0.,4.8,0.,4.8
1979-08-06 15:00:55.210 ,2,0,0.,4.8,0.,4.8,0.,4.8,0.,4.8
1979-08-06 15:01:00.010 ,2,0,4.,4.8,0.,4.8,1.,4.8,1.,4.8
1979-08-06 15:01:04.810 ,2,0,3.,4.8,3.,4.8,0.,4.8,0.,4.8
1979-08-06 15:01:09.610 ,2,0,2.,4.8,0.,4.8,1.,4.8,0.,4.8
1979-08-06 15:01:14.410 ,2,0,3.,4.8,0.,4.8,1.,4.8,0.,4.8
1979-08-06 15:01:19.210 ,2,0,3.,4.8,0.,4.8,2.,4.8,0.,4.8
1979-08-06 15:01:24.010 ,2,0,4.,4.8,1.,4.8,0.,4.8,0.,4.8
1979-08-06 15:01:28.810 ,2,0,2.,4.8,1.,4.8,1.,4.8,0.,4.8
1979-08-06 15:01:33.610 ,3,0,1.,4.8,0.,4.8,1.,4.8,0.,4.8
1979-08-06 15:01:38.410 ,3,0,4.,4.8,0.,4.8,0.,4.8,0.,4.8
1979-08-06 15:01:43.210 ,3,0,5.,4.8,0.,4.8,2.,4.8,0.,4.8
1979-08-06 15:01:48.010 ,3,0,2.,4.8,1.,4.8,0.,4.8,0.,4.8
1979-08-06 15:01:52.810 ,3,0,2.,4.8,0.,4.8,1.,4.8,0.,4.8
1979-08-06 15:01:57.610 ,3,0,3.,4.8,0.,4.8,0.,4.8,0.,4.8
1979-08-06 15:02:02.410 ,3,0,3.,4.8,0.,4.8,0.,4.8,0.,4.8
1979-08-06 15:02:07.210 ,3,0,4.,4.8,0.,4.8,2.,4.8,0.,4.8
1979-08-06 15:02:12.010 ,3,0,2.,4.8,0.,4.8,1.,4.8,0.,4.8
1979-08-06 15:02:16.810 ,3,0,3.,4.8,0.,4.8,0.,4.8,0.,4.8
1979-08-06 15:02:21.610 ,4,0,4.,4.8,0.,4.8,1.,4.8,0.,4.8
1979-08-06 15:02:26.410 ,4,0,1.,4.8,0.,4.8,2.,4.8,0.,4.8
1979-08-06 15:02:31.210 ,4,0,6.,4.8,0.,4.8,0.,4.8,0.,4.8
1979-08-06 15:02:36.010 ,4,0,3.,4.8,1.,4.8,0.,4.8,0.,4.8
1979-08-06 15:02:40.810 ,4,0,4.,4.8,0.,4.8,1.,4.8,0.,4.8
1979-08-06 15:02:45.610 ,4,0,2.,4.8,0.,4.8,1.,4.8,0.,4.8
1979-08-06 15:02:50.410 ,4,0,5.,4.8,0.,4.8,0.,4.8,0.,4.8
1979-08-06 15:02:55.210 ,4,0,0.,4.8,0.,4.8,1.,4.8,0.,4.8
1979-08-06 15:03:00.010 ,4,0,4.,4.8,0.,4.8,0.,4.8,0.,4.8
1979-08-06 15:03:04.810 ,4,0,1.,4.8,0.,4.8,1.,4.8,0.,4.8
1979-08-06 15:03:09.610 ,5,0,3.,4.8,0.,4.8,0.,4.8,0.,4.8
1979-08-06 15:03:14.410 ,5,0,4.,4.8,1.,4.8,1.,4.8,0.,4.8
1979-08-06 15:03:19.210 ,5,0,0.,4.8,1.,4.8,1.,4.8,0.,4.8
1979-08-06 15:03:24.010 ,5,0,2.,4.8,0.,4.8,1.,4.8,0.,4.8
1979-08-06 15:03:28.810 ,5,0,7.,4.8,0.,4.8,0.,4.8,0.,4.8
1979-08-06 15:03:33.610 ,5,0,1.,4.8,0.,4.8,0.,4.8,0.,4.8
1979-08-06 15:03:38.410 ,5,0,0.,4.8,0.,4.8,0.,4.8,0.,4.8
1979-08-06 15:03:43.210 ,5,0,1.,4.8,0.,4.8,0.,4.8,0.,4.8
1979-08-06 15:03:48.010 ,5,0,1.,4.8,0.,4.8,3.,4.8,0.,4.8
1979-08-06 15:03:52.810 ,5,0,3.,4.8,1.,4.8,0.,4.8,0.,4.8
1979-08-06 15:03:57.610 ,6,0,4.,4.8,0.,4.8,2.,4.8,0.,4.8
1979-08-06 15:04:02.410 ,6,0,4.,4.8,0.,4.8,1.,4.8,0.,4.8
1979-08-06 15:04:07.210 ,6,0,3.,4.8,2.,4.8,1.,4.8,0.,4.8
1979-08-06 15:04:12.010 ,6,0,5.,4.8,1.,4.8,1.,4.8,0.,4.8
1979-08-06 15:04:16.810 ,6,0,4.,4.8,1.,4.8,0.,4.8,0.,4.8
1979-08-06 15:04:21.610 ,6,0,5.,4.8,0.,4.8,0.,4.8,0.,4.8
1979-08-06 15:04:26.410 ,6,0,1.,4.8,1.,4.8,0.,4.8,0.,4.8
1979-08-06 15:04:31.210 ,6,0,4.,4.8,0.,4.8,0.,4.8,0.,4.8
1979-08-06 15:04:36.010 ,6,0,0.,4.8,0.,4.8,1.,4.8,0.,4.8
1979-08-06 15:04:40.810 ,6,0,4.,4.8,0.,4.8,0.,4.8,0.,4.8
1979-08-06 15:04:45.610 ,7,0,3.,4.8,0.,4.8,1.,4.8,0.,4.8
1979-08-06 15:04:50.410 ,7,0,2.,4.8,0.,4.8,0.,4.8,0.,4.8
1979-08-06 15:04:55.210 ,7,0,3.,4.8,1.,4.8,0.,4.8,0.,4.8
1979-08-06 15:05:00.010 ,7,0,0.,4.8,1.,4.8,0.,4.8,0.,4.8
1979-08-06 15:05:04.810 ,7,0,3.,4.8,1.,4.8,0.,4.8,0.,4.8
1979-08-06 15:05:09.610 ,7,0,2.,4.8,2.,4.8,0.,4.8,0.,4.8
1979-08-06 15:05:14.410 ,7,0,2.,4.8,1.,4.8,0.,4.8,0.,4.8
1979-08-06 15:05:19.210 ,7,0,0.,4.8,0.,4.8,1.,4.8,0.,4.8
1979-08-06 15:05:24.010 ,7,0,3.,4.8,0.,4.8,1.,4.8,0.,4.8
1979-08-06 15:05:28.810 ,7,0,0.,4.8,0.,4.8,1.,4.8,0.,4.8
1979-08-06 15:05:33.610 ,7,0,1.,4.8,1.,4.8,1.,4.8,0.,4.8
1979-08-06 15:05:38.410 ,7,0,2.,4.8,0.,4.8,1.,4.8,0.,4.8
1979-08-06 15:05:43.210 ,7,0,0.,4.8,0.,4.8,0.,4.8,0.,4.8
1979-08-06 15:05:48.010 ,7,0,4.,4.8,1.,4.8,0.,4.8,0.,4.8
1979-08-06 15:05:52.810 ,7,0,2.,4.8,1.,4.8,1.,4.8,0.,4.8
1979-08-06 15:05:57.610 ,7,0,2.,4.8,1.,4.8,1.,4.8,0.,4.8
1979-08-06 15:06:02.410 ,7,0,1.,4.8,0.,4.8,0.,4.8,0.,4.8
1979-08-06 15:06:07.210 ,7,0,3.,4.8,0.,4.8,0.,4.8,0.,4.8
1979-08-06 15:06:12.010 ,7,0,0.,4.8,0.,4.8,0.,4.8,0.,4.8
1979-08-06 15:06:16.810 ,7,0,2.,4.8,3.,4.8,1.,4.8,0.,4.8
1979-08-06 15:06:21.610 ,6,0,4.,4.8,0.,4.8,0.,4.8,0.,4.8
1979-08-06 15:06:26.410 ,6,0,0.,4.8,1.,4.8,2.,4.8,0.,4.8
1979-08-06 15:06:31.210 ,6,0,6.,4.8,0.,4.8,0.,4.8,0.,4.8
1979-08-06 15:06:36.010 ,6,0,2.,4.8,0.,4.8,0.,4.8,0.,4.8
1979-08-06 15:06:40.810 ,6,0,3.,4.8,2.,4.8,0.,4.8,0.,4.8
1979-08-06 15:06:45.610 ,6,0,5.,4.8,3.,4.8,0.,4.8,0.,4.8
1979-08-06 15:06:50.410 ,6,0,3.,4.8,2.,4.8,0.,4.8,0.,4.8
1979-08-06 15:06:55.210 ,6,0,2.,4.8,1.,4.8,2.,4.8,0.,4.8
1979-08-06 15:07:00.010 ,6,0,7.,4.8,1.,4.8,0.,4.8,0.,4.8
1979-08-06 15:07:04.810 ,6,0,2.,4.8,3.,4.8,0.,4.8,0.,4.8
1979-08-06 15:07:09.610 ,5,0,6.,4.8,1.,4.8,0.,4.8,0.,4.8
1979-08-06 15:07:14.410 ,5,0,3.,4.8,0.,4.8,0.,4.8,0.,4.8
1979-08-06 15:07:19.210 ,5,0,4.,4.8,0.,4.8,3.,4.8,0.,4.8
1979-08-06 15:07:24.010 ,5,0,2.,4.8,1.,4.8,0.,4.8,0.,4.8
1979-08-06 15:07:28.810 ,5,0,5.,4.8,0.,4.8,1.,4.8,0.,4.8
1979-08-06 15:07:33.610 ,5,0,4.,4.8,1.,4.8,0.,4.8,0.,4.8
1979-08-06 15:07:38.410 ,5,0,4.,4.8,0.,4.8,1.,4.8,0.,4.8
1979-08-06 15:07:43.210 ,5,0,3.,4.8,0.,4.8,1.,4.8,0.,4.8
1979-08-06 15:07:48.010 ,5,0,3.,4.8,1.,4.8,0.,4.8,0.,4.8
1979-08-06 15:07:52.810 ,5,0,2.,4.8,4.,4.8,2.,4.8,0.,4.8
1979-08-06 15:07:57.610 ,4,0,3.,4.8,0.,4.8,2.,4.8,0.,4.8
1979-08-06 15:08:02.410 ,4,0,6.,4.8,3.,4.8,2.,4.8,0.,4.8
1979-08-06 15:08:07.210 ,4,0,1.,4.8,0.,4.8,2.,4.8,0.,4.8
1979-08-06 15:08:12.010 ,4,0,3.,4.8,0.,4.8,1.,4.8,0.,4.8
1979-08-06 15:08:16.810 ,4,0,3.,4.8,0.,4.8,1.,4.8,0.,4.8
1979-08-06 15:08:21.610 ,4,0,4.,4.8,0.,4.8,0.,4.8,0.,4.8
1979-08-06 15:08:26.410 ,4,0,2.,4.8,0.,4.8,0.,4.8,0.,4.8
1979-08-06 15:08:31.210 ,4,0,6.,4.8,1.,4.8,0.,4.8,0.,4.8
1979-08-06 15:08:36.010 ,4,0,4.,4.8,1.,4.8,0.,4.8,0.,4.8
1979-08-06 15:08:40.810 ,4,0,2.,4.8,0.,4.8,0.,4.8,0.,4.8
1979-08-06 15:08:45.610 ,3,0,2.,4.8,1.,4.8,0.,4.8,0.,4.8
1979-08-06 15:08:50.410 ,3,0,0.,4.8,0.,4.8,0.,4.8,0.,4.8
1979-08-06 15:08:55.210 ,3,0,3.,4.8,0.,4.8,1.,4.8,0.,4.8
1979-08-06 15:09:00.010 ,3,0,1.,4.8,0.,4.8,0.,4.8,0.,4.8
1979-08-06 15:09:04.810 ,3,0,1.,4.8,0.,4.8,0.,4.8,0.,4.8
1979-08-06 15:09:09.610 ,3,0,8.,4.8,1.,4.8,1.,4.8,0.,4.8
1979-08-06 15:09:14.410 ,3,0,3.,4.8,0.,4.8,0.,4.8,0.,4.8
1979-08-06 15:09:19.210 ,3,0,3.,4.8,0.,4.8,1.,4.8,0.,4.8
1979-08-06 15:09:24.010 ,3,0,3.,4.8,0.,4.8,0.,4.8,0.,4.8
1979-08-06 15:09:28.810 ,3,0,3.,4.8,0.,4.8,0.,4.8,0.,4.8
1979-08-06 15:09:33.610 ,2,0,0.,4.8,0.,4.8,1.,4.8,0.,4.8
1979-08-06 15:09:38.410 ,2,0,0.,4.8,0.,4.8,1.,4.8,0.,4.8
1979-08-06 15:09:43.210 ,2,0,2.,4.8,1.,4.8,0.,4.8,0.,4.8
1979-08-06 15:09:48.010 ,2,0,3.,4.8,1.,4.8,1.,4.8,0.,4.8
1979-08-06 15:09:52.810 ,2,0,3.,4.8,1.,4.8,1.,4.8,0.,4.8
1979-08-06 15:09:57.610 ,2,0,2.,4.8,2.,4.8,0.,4.8,0.,4.8
1979-08-06 15:10:02.410 ,2,0,1.,4.8,0.,4.8,2.,4.8,0.,4.8
1979-08-06 15:10:07.210 ,2,0,3.,4.8,1.,4.8,0.,4.8,0.,4.8
1979-08-06 15:10:12.010 ,2,0,2.,4.8,0.,4.8,0.,4.8,0.,4.8
1979-08-06 15:10:16.810 ,2,0,2.,4.8,1.,4.8,1.,4.8,0.,4.8
1979-08-06 15:10:21.610 ,1,0,0.,4.8,2.,4.8,1.,4.8,0.,4.8
1979-08-06 15:10:26.410 ,1,0,3.,4.8,1.,4.8,1.,4.8,0.,4.8
1979-08-06 15:10:31.210 ,1,0,3.,4.8,3.,4.8,0.,4.8,1.,4.8
1979-08-06 15:10:36.010 ,1,0,4.,4.8,0.,4.8,1.,4.8,0.,4.8
1979-08-06 15:10:40.810 ,1,0,5.,4.8,2.,4.8,1.,4.8,0.,4.8
1979-08-06 15:10:45.610 ,1,0,2.,4.8,0.,4.8,0.,4.8,0.,4.8
1979-08-06 15:10:50.410 ,1,0,1.,4.8,4.,4.8,1.,4.8,0.,4.8
1979-08-06 15:10:55.210 ,1,0,1.,4.8,3.,4.8,0.,4.8,0.,4.8
1979-08-06 15:11:00.010 ,1,0,4.,4.8,0.,4.8,1.,4.8,0.,4.8
1979-08-06 15:11:04.810 ,1,0,1.,4.8,0.,4.8,0.,4.8,0.,4.8
1979-08-06 15:11:09.610 ,0,0,1.,4.8,1.,4.8,0.,4.8,0.,4.8
1979-08-06 15:11:14.410 ,0,0,5.,4.8,1.,4.8,0.,4.8,0.,4.8
1979-08-06 15:11:19.210 ,0,0,2.,4.8,1.,4.8,2.,4.8,0.,4.8
1979-08-06 15:11:24.010 ,0,0,2.,4.8,0.,4.8,2.,4.8,0.,4.8
1979-08-06 15:11:28.810 ,0,0,2.,4.8,1.,4.8,1.,4.8,0.,4.8
1979-08-06 15:11:33.610 ,0,0,5.,4.8,1.,4.8,0.,4.8,0.,4.8
1979-08-06 15:11:38.410 ,0,0,2.,4.8,0.,4.8,0.,4.8,0.,4.8
1979-08-06 15:11:43.210 ,0,0,2.,4.8,0.,4.8,0.,4.8,0.,4.8
1979-08-06 15:11:48.010 ,0,0,4.,4.8,0.,4.8,0.,4.8,0.,4.8
1979-08-06 15:11:52.810 ,0,0,2.,4.8,1.,4.8,1.,4.8,0.,4.8
1979-08-06 15:11:57.610 ,0,0,2.,4.8,0.,4.8,0.,4.8,0.,4.8
1979-08-06 15:12:02.410 ,0,0,3.,4.8,0.,4.8,0.,4.8,0.,4.8
1979-08-06 15:12:07.210 ,0,0,1.,4.8,0.,4.8,0.,4.8,0.,4.8
1979-08-06 15:12:12.010 ,0,0,8.,4.8,0.,4.8,1.,4.8,0.,4.8
1979-08-06 15:12:16.810 ,0,0,3.,4.8,0.,4.8,0.,4.8,0.,4.8
1979-08-06 15:12:21.610 ,0,0,0.,4.8,2.,4.8,0.,4.8,0.,4.8
1979-08-06 15:12:26.410 ,0,0,4.,4.8,0.,4.8,0.,4.8,0.,4.8
1979-08-06 15:12:31.210 ,0,0,5.,4.8,0.,4.8,1.,4.8,0.,4.8
1979-08-06 15:12:36.010 ,0,0,2.,4.8,2.,4.8,0.,4.8,0.,4.8
1979-08-06 15:12:40.810 ,0,0,1.,4.8,2.,4.8,0.,4.8,0.,4.8
1979-08-06 15:12:45.610 ,1,0,3.,4.8,1.,4.8,0.,4.8,0.,4.8
1979-08-06 15:12:50.410 ,1,0,3.,4.8,1.,4.8,0.,4.8,0.,4.8
1979-08-06 15:12:55.210 ,1,0,1.,4.8,0.,4.8,1.,4.8,0.,4.8
1979-08-06 15:13:00.010 ,1,0,1.,4.8,1.,4.8,0.,4.8,0.,4.8
1979-08-06 15:13:04.810 ,1,0,4.,4.8,0.,4.8,0.,4.8,0.,4.8
1979-08-06 15:13:09.610 ,1,0,2.,4.8,0.,4.8,0.,4.8,0.,4.8
1979-08-06 15:13:14.410 ,1,0,3.,4.8,0.,4.8,1.,4.8,0.,4.8
1979-08-06 15:13:19.210 ,1,0,6.,4.8,1.,4.8,0.,4.8,0.,4.8
1979-08-06 15:13:24.010 ,1,0,4.,4.8,0.,4.8,0.,4.8,0.,4.8
1979-08-06 15:13:28.810 ,1,0,1.,4.8,3.,4.8,1.,4.8,0.,4.8
1979-08-06 15:13:33.610 ,2,0,3.,4.8,0.,4.8,2.,4.8,0.,4.8
1979-08-06 15:13:38.410 ,2,0,3.,4.8,1.,4.8,1.,4.8,0.,4.8
1979-08-06 15:13:43.210 ,2,0,3.,4.8,2.,4.8,0.,4.8,0.,4.8
1979-08-06 15:13:48.010 ,2,0,1.,4.8,1.,4.8,0.,4.8,0.,4.8
1979-08-06 15:13:52.810 ,2,0,0.,4.8,3.,4.8,1.,4.8,0.,4.8
1979-08-06 15:13:57.610 ,2,0,1.,4.8,0.,4.8,0.,4.8,0.,4.8
1979-08-06 15:14:02.410 ,2,0,3.,4.8,0.,4.8,0.,4.8,0.,4.8
1979-08-06 15:14:07.210 ,2,0,3.,4.8,2.,4.8,0.,4.8,0.,4.8
1979-08-06 15:14:12.010 ,2,0,1.,4.8,1.,4.8,0.,4.8,0.,4.8
1979-08-06 15:14:16.810 ,2,0,5.,4.8,1.,4.8,0.,4.8,0.,4.8
1979-08-06 15:14:21.610 ,3,0,3.,4.8,1.,4.8,0.,4.8,0.,4.8
1979-08-06 15:14:26.410 ,3,0,1.,4.8,2.,4.8,0.,4.8,0.,4.8
1979-08-06 15:14:31.210 ,3,0,1.,4.8,0.,4.8,2.,4.8,0.,4.8
1979-08-06 15:14:36.010 ,3,0,4.,4.8,0.,4.8,1.,4.8,0.,4.8
1979-08-06 15:14:40.810 ,3,0,3.,4.8,0.,4.8,1.,4.8,0.,4.8
1979-08-06 15:14:45.610 ,3,0,1.,4.8,0.,4.8,0.,4.8,0.,4.8
1979-08-06 15:14:50.410 ,3,0,3.,4.8,0.,4.8,1.,4.8,0.,4.8
1979-08-06 15:14:55.210 ,3,0,1.,4.8,0.,4.8,0.,4.8,0.,4.8
1979-08-06 15:15:00.010 ,3,0,2.,4.8,0.,4.8,0.,4.8,0.,4.8
1979-08-06 15:15:04.810 ,3,0,1.,4.8,1.,4.8,0.,4.8,0.,4.8
1979-08-06 15:15:09.610 ,4,0,5.,4.8,0.,4.8,1.,4.8,0.,4.8
1979-08-06 15:15:14.410 ,4,0,6.,4.8,1.,4.8,0.,4.8,0.,4.8
1979-08-06 15:15:19.210 ,4,0,1.,4.8,0.,4.8,1.,4.8,0.,4.8
1979-08-06 15:15:24.010 ,4,0,1.,4.8,0.,4.8,0.,4.8,0.,4.8
1979-08-06 15:15:28.810 ,4,0,3.,4.8,1.,4.8,0.,4.8,0.,4.8
1979-08-06 15:15:33.610 ,4,0,1.,4.8,0.,4.8,0.,4.8,0.,4.8
1979-08-06 15:15:38.410 ,4,0,3.,4.8,0.,4.8,0.,4.8,0.,4.8
1979-08-06 15:15:43.210 ,4,0,6.,4.8,0.,4.8,1.,4.8,0.,4.8
1979-08-06 15:15:48.010 ,4,0,3.,4.8,0.,4.8,2.,4.8,0.,4.8
1979-08-06 15:15:52.810 ,4,0,3.,4.8,0.,4.8,0.,4.8,0.,4.8
1979-08-06 15:15:57.610 ,5,0,2.,4.8,0.,4.8,1.,4.8,0.,4.8
1979-08-06 15:16:02.410 ,5,0,3.,4.8,0.,4.8,0.,4.8,0.,4.8
1979-08-06 15:16:07.210 ,5,0,2.,4.8,0.,4.8,0.,4.8,0.,4.8
1979-08-06 15:16:12.010 ,5,0,2.,4.8,1.,4.8,0.,4.8,0.,4.8
1979-08-06 15:16:16.810 ,5,0,4.,4.8,0.,4.8,1.,4.8,0.,4.8
1979-08-06 15:16:21.610 ,5,0,5.,4.8,1.,4.8,1.,4.8,0.,4.8
1979-08-06 15:16:26.410 ,5,0,2.,4.8,2.,4.8,1.,4.8,0.,4.8
1979-08-06 15:16:31.210 ,5,0,3.,4.8,1.,4.8,1.,4.8,0.,4.8
1979-08-06 15:16:36.010 ,5,0,1.,4.8,0.,4.8,0.,4.8,0.,4.8
1979-08-06 15:16:40.810 ,5,0,2.,4.8,1.,4.8,0.,4.8,0.,4.8
1979-08-06 15:16:45.610 ,6,0,1.,4.8,1.,4.8,0.,4.8,0.,4.8
1979-08-06 15:16:50.410 ,6,0,6.,4.8,1.,4.8,0.,4.8,0.,4.8
1979-08-06 15:16:55.210 ,6,0,4.,4.8,0.,4.8,2.,4.8,0.,4.8
1979-08-06 15:17:00.010 ,6,0,1.,4.8,1.,4.8,0.,4.8,0.,4.8
1979-08-06 15:17:04.810 ,6,0,3.,4.8,0.,4.8,1.,4.8,0.,4.8
1979-08-06 15:17:09.610 ,6,0,8.,4.8,2.,4.8,1.,4.8,0.,4.8
1979-08-06 15:17:14.410 ,6,0,2.,4.8,0.,4.8,1.,4.8,0.,4.8
1979-08-06 15:17:19.210 ,6,0,5.,4.8,1.,4.8,0.,4.8,0.,4.8
1979-08-06 15:17:24.010 ,6,0,7.,4.8,0.,4.8,0.,4.8,0.,4.8
1979-08-06 15:17:28.810 ,6,0,6.,4.8,0.,4.8,0.,4.8,0.,4.8
1979-08-06 15:17:33.610 ,7,0,1.,4.8,1.,4.8,1.,4.8,0.,4.8
1979-08-06 15:17:38.410 ,7,0,1.,4.8,2.,4.8,1.,4.8,0.,4.8
1979-08-06 15:17:43.210 ,7,0,2.,4.8,0.,4.8,1.,4.8,0.,4.8
1979-08-06 15:17:48.010 ,7,0,3.,4.8,0.,4.8,0.,4.8,0.,4.8
1979-08-06 15:17:52.810 ,7,0,2.,4.8,2.,4.8,0.,4.8,0.,4.8
1979-08-06 15:17:57.610 ,7,0,1.,4.8,0.,4.8,0.,4.8,0.,4.8
1979-08-06 15:18:02.410 ,7,0,2.,4.8,2.,4.8,1.,4.8,0.,4.8
1979-08-06 15:18:07.210 ,7,0,1.,4.8,0.,4.8,0.,4.8,0.,4.8
1979-08-06 15:18:12.010 ,7,0,4.,4.8,0.,4.8,1.,4.8,0.,4.8
1979-08-06 15:18:16.810 ,7,0,1.,4.8,0.,4.8,0.,4.8,0.,4.8
1979-08-06 15:18:21.610 ,7,0,2.,4.8,3.,4.8,2.,4.8,0.,4.8
1979-08-06 15:18:26.410 ,7,0,3.,4.8,0.,4.8,0.,4.8,0.,4.8
1979-08-06 15:18:31.210 ,7,0,3.,4.8,0.,4.8,1.,4.8,0.,4.8
1979-08-06 15:18:36.010 ,7,0,2.,4.8,2.,4.8,0.,4.8,0.,4.8
1979-08-06 15:18:40.810 ,7,0,4.,4.8,1.,4.8,0.,4.8,0.,4.8
1979-08-06 15:18:45.610 ,7,0,1.,4.8,0.,4.8,1.,4.8,0.,4.8
1979-08-06 15:18:50.410 ,7,0,1.,4.8,2.,4.8,0.,4.8,0.,4.8
1979-08-06 15:18:55.210 ,7,0,2.,4.8,0.,4.8,0.,4.8,0.,4.8
1979-08-06 15:19:00.010 ,7,0,0.,4.8,0.,4.8,0.,4.8,0.,4.8
1979-08-06 15:19:04.810 ,7,0,1.,4.8,1.,4.8,0.,4.8,0.,4.8
1979-08-06 15:19:09.610 ,6,0,1.,4.8,1.,4.8,0.,4.8,0.,4.8
1979-08-06 15:19:14.410 ,6,0,1.,4.8,0.,4.8,0.,4.8,0.,4.8
1979-08-06 15:19:19.210 ,6,0,3.,4.8,2.,4.8,0.,4.8,0.,4.8
1979-08-06 15:19:24.010 ,6,0,1.,4.8,0.,4.8,0.,4.8,0.,4.8
1979-08-06 15:19:28.810 ,6,0,1.,4.8,1.,4.8,1.,4.8,0.,4.8
1979-08-06 15:19:33.610 ,6,0,6.,4.8,0.,4.8,1.,4.8,0.,4.8
1979-08-06 15:19:38.410 ,6,0,4.,4.8,0.,4.8,0.,4.8,0.,4.8
1979-08-06 15:19:43.210 ,6,0,6.,4.8,0.,4.8,2.,4.8,0.,4.8
1979-08-06 15:19:48.010 ,6,0,4.,4.8,0.,4.8,0.,4.8,0.,4.8
1979-08-06 15:19:52.810 ,6,0,7.,4.8,2.,4.8,0.,4.8,0.,4.8
1979-08-06 15:19:57.610 ,5,0,1.,4.8,1.,4.8,0.,4.8,0.,4.8
1979-08-06 15:20:02.410 ,5,0,7.,4.8,1.,4.8,0.,4.8,0.,4.8
1979-08-06 15:20:07.210 ,5,0,2.,4.8,0.,4.8,1.,4.8,0.,4.8
1979-08-06 15:20:12.010 ,5,0,5.,4.8,0.,4.8,1.,4.8,0.,4.8
1979-08-06 15:20:16.810 ,5,0,2.,4.8,1.,4.8,0.,4.8,0.,4.8
1979-08-06 15:20:21.610 ,5,0,3.,4.8,0.,4.8,0.,4.8,0.,4.8
1979-08-06 15:20:26.410 ,5,0,7.,4.8,0.,4.8,0.,4.8,0.,4.8
1979-08-06 15:20:31.210 ,5,0,2.,4.8,1.,4.8,0.,4.8,0.,4.8
1979-08-06 15:20:36.010 ,5,0,4.,4.8,1.,4.8,0.,4.8,0.,4.8
1979-08-06 15:20:40.810 ,5,0,2.,4.8,0.,4.8,0.,4.8,0.,4.8
1979-08-06 15:20:45.610 ,4,0,4.,4.8,0.,4.8,0.,4.8,0.,4.8
1979-08-06 15:20:50.410 ,4,0,9.,4.8,1.,4.8,2.,4.8,0.,4.8
1979-08-06 15:20:55.210 ,4,0,4.,4.8,0.,4.8,1.,4.8,0.,4.8
1979-08-06 15:21:00.010 ,4,0,5.,4.8,2.,4.8,0.,4.8,0.,4.8
1979-08-06 15:21:04.810 ,4,0,3.,4.8,0.,4.8,0.,4.8,0.,4.8
1979-08-06 15:21:09.610 ,4,0,2.,4.8,0.,4.8,0.,4.8,0.,4.8
1979-08-06 15:21:14.410 ,4,0,3.,4.8,1.,4.8,1.,4.8,0.,4.8
1979-08-06 15:21:19.210 ,4,0,2.,4.8,0.,4.8,0.,4.8,0.,4.8
1979-08-06 15:21:24.010 ,4,0,4.,4.8,0.,4.8,1.,4.8,0.,4.8
1979-08-06 15:21:28.810 ,4,0,1.,4.8,1.,4.8,0.,4.8,0.,4.8
1979-08-06 15:21:33.610 ,3,0,4.,4.8,0.,4.8,0.,4.8,0.,4.8
1979-08-06 15:21:38.410 ,3,0,5.,4.8,1.,4.8,0.,4.8,0.,4.8
1979-08-06 15:21:43.210 ,3,0,1.,4.8,0.,4.8,0.,4.8,0.,4.8
1979-08-06 15:21:48.010 ,3,0,2.,4.8,0.,4.8,1.,4.8,0.,4.8
1979-08-06 15:21:52.810 ,3,0,2.,4.8,1.,4.8,1.,4.8,0.,4.8
1979-08-06 15:21:57.610 ,3,0,5.,4.8,1.,4.8,0.,4.8,0.,4.8
1979-08-06 15:22:02.410 ,3,0,4.,4.8,0.,4.8,0.,4.8,0.,4.8
1979-08-06 15:22:07.210 ,3,0,1.,4.8,0.,4.8,1.,4.8,0.,4.8
1979-08-06 15:22:12.010 ,3,0,2.,4.8,1.,4.8,1.,4.8,0.,4.8
1979-08-06 15:22:16.810 ,3,0,1.,4.8,0.,4.8,0.,4.8,0.,4.8
1979-08-06 15:22:21.610 ,2,0,0.,4.8,0.,4.8,0.,4.8,0.,4.8
1979-08-06 15:22:26.410 ,2,0,3.,4.8,0.,4.8,1.,4.8,0.,4.8
1979-08-06 15:22:31.210 ,2,0,3.,4.8,1.,4.8,0.,4.8,0.,4.8
1979-08-06 15:22:36.010 ,2,0,0.,4.8,1.,4.8,0.,4.8,0.,4.8
1979-08-06 15:22:40.810 ,2,0,3.,4.8,2.,4.8,0.,4.8,0.,4.8
1979-08-06 15:22:45.610 ,2,0,4.,4.8,0.,4.8,0.,4.8,0.,4.8
1979-08-06 15:22:50.410 ,2,0,7.,4.8,0.,4.8,1.,4.8,0.,4.8
1979-08-06 15:22:55.210 ,2,0,3.,4.8,0.,4.8,1.,4.8,0.,4.8
1979-08-06 15:23:00.010 ,2,0,1.,4.8,2.,4.8,0.,4.8,0.,4.8
1979-08-06 15:23:04.810 ,2,0,2.,4.8,1.,4.8,0.,4.8,0.,4.8
1979-08-06 15:23:09.610 ,1,0,4.,4.8,0.,4.8,0.,4.8,0.,4.8
1979-08-06 15:23:14.410 ,1,0,1.,4.8,2.,4.8,1.,4.8,0.,4.8
1979-08-06 15:23:19.210 ,1,0,5.,4.8,1.,4.8,0.,4.8,1.,4.8
1979-08-06 15:23:24.010 ,1,0,2.,4.8,0.,4.8,0.,4.8,0.,4.8
1979-08-06 15:23:28.810 ,1,0,7.,4.8,0.,4.8,0.,4.8,0.,4.8
1979-08-06 15:23:33.610 ,1,0,3.,4.8,0.,4.8,0.,4.8,0.,4.8
1979-08-06 15:23:38.410 ,1,0,3.,4.8,0.,4.8,0.,4.8,0.,4.8
1979-08-06 15:23:43.210 ,1,0,5.,4.8,0.,4.8,2.,4.8,0.,4.8
1979-08-06 15:23:48.010 ,1,0,1.,4.8,0.,4.8,2.,4.8,0.,4.8
1979-08-06 15:23:52.810 ,1,0,2.,4.8,0.,4.8,0.,4.8,0.,4.8
1979-08-06 15:23:57.610 ,0,0,5.,4.8,3.,4.8,0.,4.8,0.,4.8
1979-08-06 15:24:02.410 ,0,0,3.,4.8,0.,4.8,1.,4.8,0.,4.8
1979-08-06 15:24:07.210 ,0,0,6.,4.8,0.,4.8,1.,4.8,0.,4.8
1979-08-06 15:24:12.010 ,0,0,2.,4.8,0.,4.8,0.,4.8,0.,4.8
1979-08-06 15:24:16.810 ,0,0,5.,4.8,1.,4.8,1.,4.8,0.,4.8
1979-08-06 15:24:21.610 ,0,0,2.,4.8,0.,4.8,0.,4.8,0.,4.8
1979-08-06 15:24:26.410 ,0,0,2.,4.8,0.,4.8,0.,4.8,0.,4.8
1979-08-06 15:24:31.210 ,0,0,4.,4.8,0.,4.8,0.,4.8,0.,4.8
1979-08-06 15:24:36.010 ,0,0,5.,4.8,1.,4.8,0.,4.8,0.,4.8
1979-08-06 15:24:40.810 ,0,0,1.,4.8,0.,4.8,0.,4.8,0.,4.8
1979-08-06 15:24:45.610 ,0,0,3.,4.8,0.,4.8,1.,4.8,0.,4.8
1979-08-06 15:24:50.410 ,0,0,1.,4.8,0.,4.8,0.,4.8,0.,4.8
1979-08-06 15:24:55.210 ,0,0,4.,4.8,0.,4.8,1.,4.8,0.,4.8
1979-08-06 15:25:00.010 ,0,0,1.,4.8,1.,4.8,0.,4.8,0.,4.8
1979-08-06 15:25:04.810 ,0,0,5.,4.8,2.,4.8,0.,4.8,0.,4.8
1979-08-06 15:25:09.610 ,0,0,1.,4.8,2.,4.8,0.,4.8,0.,4.8
1979-08-06 15:25:14.410 ,0,0,5.,4.8,1.,4.8,1.,4.8,0.,4.8
1979-08-06 15:25:19.210 ,0,0,3.,4.8,0.,4.8,1.,4.8,0.,4.8
1979-08-06 15:25:24.010 ,0,0,3.,4.8,2.,4.8,2.,4.8,0.,4.8
1979-08-06 15:25:28.810 ,0,0,2.,4.8,1.,4.8,1.,4.8,0.,4.8
1979-08-06 15:25:33.610 ,1,0,3.,4.8,1.,4.8,1.,4.8,0.,4.8
1979-08-06 15:25:38.410 ,1,0,3.,4.8,0.,4.8,1.,4.8,0.,4.8
1979-08-06 15:25:43.210 ,1,0,3.,4.8,0.,4.8,0.,4.8,0.,4.8
1979-08-06 15:25:48.010 ,1,0,2.,4.8,0.,4.8,1.,4.8,0.,4.8
1979-08-06 15:25:52.810 ,1,0,2.,4.8,0.,4.8,0.,4.8,0.,4.8
1979-08-06 15:25:57.610 ,1,0,1.,4.8,1.,4.8,0.,4.8,0.,4.8
1979-08-06 15:26:02.410 ,1,0,0.,4.8,0.,4.8,0.,4.8,0.,4.8
1979-08-06 15:26:07.210 ,1,0,3.,4.8,1.,4.8,1.,4.8,0.,4.8
1979-08-06 15:26:12.010 ,1,0,0.,4.8,1.,4.8,0.,4.8,0.,4.8
1979-08-06 15:26:16.810 ,1,0,3.,4.8,0.,4.8,1.,4.8,0.,4.8
1979-08-06 15:26:21.610 ,2,0,5.,4.8,0.,4.8,1.,4.8,0.,4.8
1979-08-06 15:26:26.410 ,2,0,1.,4.8,0.,4.8,0.,4.8,0.,4.8
1979-08-06 15:26:31.210 ,2,0,0.,4.8,0.,4.8,0.,4.8,0.,4.8
1979-08-06 15:26:36.010 ,2,0,3.,4.8,1.,4.8,0.,4.8,0.,4.8
1979-08-06 15:26:40.810 ,2,0,5.,4.8,0.,4.8,0.,4.8,0.,4.8
1979-08-06 15:26:45.610 ,2,0,0.,4.8,1.,4.8,2.,4.8,0.,4.8
1979-08-06 15:26:50.410 ,2,0,2.,4.8,1.,4.8,0.,4.8,0.,4.8
1979-08-06 15:26:55.210 ,2,0,2.,4.8,1.,4.8,1.,4.8,0.,4.8
1979-08-06 15:27:00.010 ,2,0,4.,4.8,1.,4.8,1.,4.8,0.,4.8
1979-08-06 15:27:04.810 ,2,0,1.,4.8,0.,4.8,0.,4.8,0.,4.8
1979-08-06 15:27:09.610 ,3,0,5.,4.8,0.,4.8,0.,4.8,0.,4.8
1979-08-06 15:27:14.410 ,3,0,2.,4.8,0.,4.8,1.,4.8,0.,4.8
1979-08-06 15:27:19.210 ,3,0,1.,4.8,1.,4.8,0.,4.8,0.,4.8
1979-08-06 15:27:24.010 ,3,0,4.,4.8,0.,4.8,1.,4.8,0.,4.8
1979-08-06 15:27:28.810 ,3,0,3.,4.8,0.,4.8,0.,4.8,0.,4.8
1979-08-06 15:27:33.610 ,3,0,5.,4.8,0.,4.8,0.,4.8,0.,4.8
1979-08-06 15:27:38.410 ,3,0,1.,4.8,0.,4.8,0.,4.8,0.,4.8
1979-08-06 15:27:43.210 ,3,0,4.,4.8,1.,4.8,0.,4.8,0.,4.8
1979-08-06 15:27:48.010 ,3,0,4.,4.8,0.,4.8,0.,4.8,0.,4.8
1979-08-06 15:27:52.810 ,3,0,1.,4.8,0.,4.8,1.,4.8,0.,4.8
1979-08-06 15:27:57.610 ,4,0,3.,4.8,0.,4.8,0.,4.8,0.,4.8
1979-08-06 15:28:02.410 ,4,0,1.,4.8,0.,4.8,0.,4.8,0.,4.8
1979-08-06 15:28:07.210 ,4,0,5.,4.8,0.,4.8,0.,4.8,0.,4.8
1979-08-06 15:28:12.010 ,4,0,2.,4.8,0.,4.8,0.,4.8,0.,4.8
1979-08-06 15:28:16.810 ,4,0,3.,4.8,0.,4.8,0.,4.8,0.,4.8
1979-08-06 15:28:21.610 ,4,0,3.,4.8,0.,4.8,1.,4.8,0.,4.8
1979-08-06 15:28:26.410 ,4,0,3.,4.8,1.,4.8,0.,4.8,0.,4.8
1979-08-06 15:28:31.210 ,4,0,2.,4.8,0.,4.8,0.,4.8,0.,4.8
1979-08-06 15:28:36.010 ,4,0,3.,4.8,0.,4.8,0.,4.8,0.,4.8
1979-08-06 15:28:40.810 ,4,0,2.,4.8,0.,4.8,0.,4.8,0.,4.8
1979-08-06 15:28:45.610 ,5,0,4.,4.8,0.,4.8,0.,4.8,0.,4.8
1979-08-06 15:28:50.410 ,5,0,6.,4.8,1.,4.8,1.,4.8,0.,4.8
1979-08-06 15:28:55.210 ,5,0,2.,4.8,0.,4.8,0.,4.8,0.,4.8
1979-08-06 15:29:00.010 ,5,0,4.,4.8,1.,4.8,1.,4.8,0.,4.8
1979-08-06 15:29:04.810 ,5,0,5.,4.8,0.,4.8,1.,4.8,0.,4.8
1979-08-06 15:29:09.610 ,5,0,4.,4.8,0.,4.8,1.,4.8,0.,4.8
1979-08-06 15:29:14.410 ,5,0,2.,4.8,1.,4.8,0.,4.8,0.,4.8
1979-08-06 15:29:19.210 ,5,0,3.,4.8,0.,4.8,0.,4.8,0.,4.8
1979-08-06 15:29:24.010 ,5,0,1.,4.8,0.,4.8,0.,4.8,0.,4.8
1979-08-06 15:29:28.810 ,5,0,1.,4.8,1.,4.8,1.,4.8,0.,4.8
1979-08-06 15:29:33.610 ,6,0,2.,4.8,1.,4.8,1.,4.8,0.,4.8
1979-08-06 15:29:38.410 ,6,0,3.,4.8,1.,4.8,0.,4.8,0.,4.8
1979-08-06 15:29:43.210 ,6,0,4.,4.8,1.,4.8,2.,4.8,0.,4.8
1979-08-06 15:29:48.010 ,6,0,3.,4.8,0.,4.8,1.,4.8,0.,4.8
1979-08-06 15:29:52.810 ,6,0,6.,4.8,0.,4.8,0.,4.8,0.,4.8
1979-08-06 15:29:57.610 ,6,0,5.,4.8,0.,4.8,2.,4.8,0.,4.8
1979-08-06 15:30:02.410 ,6,0,2.,4.8,1.,4.8,1.,4.8,0.,4.8
1979-08-06 15:30:07.210 ,6,0,5.,4.8,1.,4.8,0.,4.8,0.,4.8
1979-08-06 15:30:12.010 ,6,0,1.,4.8,0.,4.8,1.,4.8,0.,4.8
1979-08-06 15:30:16.810 ,6,0,6.,4.8,0.,4.8,0.,4.8,0.,4.8
1979-08-06 15:30:21.610 ,7,0,4.,4.8,0.,4.8,0.,4.8,1.,4.8
1979-08-06 15:30:26.410 ,7,0,1.,4.8,1.,4.8,1.,4.8,0.,4.8
1979-08-06 15:30:31.210 ,7,0,4.,4.8,2.,4.8,0.,4.8,1.,4.8
1979-08-06 15:30:36.010 ,7,0,2.,4.8,0.,4.8,2.,4.8,0.,4.8
1979-08-06 15:30:40.810 ,7,0,2.,4.8,3.,4.8,0.,4.8,0.,4.8
1979-08-06 15:30:45.610 ,7,0,1.,4.8,1.,4.8,0.,4.8,0.,4.8
1979-08-06 15:30:50.410 ,7,0,2.,4.8,1.,4.8,0.,4.8,0.,4.8
1979-08-06 15:30:55.210 ,7,0,1.,4.8,0.,4.8,0.,4.8,0.,4.8
1979-08-06 15:31:00.010 ,7,0,1.,4.8,0.,4.8,0.,4.8,0.,4.8
1979-08-06 15:31:04.810 ,7,0,0.,4.8,1.,4.8,0.,4.8,0.,4.8
1979-08-06 15:31:09.610 ,3,1,1.,4.8,1.,4.8,2.,4.8,0.,4.8
1979-08-06 15:31:14.410 ,3,1,4.,4.8,0.,4.8,0.,4.8,0.,4.8
1979-08-06 15:31:19.210 ,3,1,0.,4.8,0.,4.8,1.,4.8,0.,4.8
1979-08-06 15:31:24.010 ,3,1,1.,4.8,0.,4.8,2.,4.8,0.,4.8
1979-08-06 15:31:28.810 ,3,1,5.,4.8,0.,4.8,1.,4.8,0.,4.8
1979-08-06 15:31:33.610 ,0,1,1.,4.8,0.,4.8,1.,4.8,0.,4.8
1979-08-06 15:31:38.410 ,0,1,3.,4.8,1.,4.8,2.,4.8,0.,4.8
1979-08-06 15:31:43.210 ,0,1,3.,4.8,0.,4.8,0.,4.8,0.,4.8
1979-08-06 15:31:48.010 ,0,1,7.,4.8,2.,4.8,0.,4.8,0.,4.8
1979-08-06 15:31:52.810 ,0,1,3.,4.8,0.,4.8,0.,4.8,0.,4.8
1979-08-06 15:31:57.610 ,4,1,2.,4.8,1.,4.8,1.,4.8,0.,4.8
1979-08-06 15:32:02.410 ,4,1,4.,4.8,1.,4.8,0.,4.8,0.,4.8
1979-08-06 15:32:07.210 ,4,1,2.,4.8,0.,4.8,0.,4.8,0.,4.8
1979-08-06 15:32:12.010 ,4,1,2.,4.8,1.,4.8,1.,4.8,0.,4.8
1979-08-06 15:32:16.810 ,4,1,3.,4.8,0.,4.8,1.,4.8,0.,4.8
1979-08-06 15:32:21.610 ,7,1,4.,4.8,1.,4.8,1.,4.8,0.,4.8
1979-08-06 15:32:26.410 ,7,1,3.,4.8,1.,4.8,0.,4.8,0.,4.8
1979-08-06 15:32:31.210 ,7,1,7.,4.8,0.,4.8,0.,4.8,0.,4.8
1979-08-06 15:32:36.010 ,7,1,0.,4.8,0.,4.8,2.,4.8,0.,4.8
1979-08-06 15:32:40.810 ,7,1,1.,4.8,2.,4.8,0.,4.8,0.,4.8
1979-08-06 15:32:45.610 ,3,1,0.,4.8,1.,4.8,0.,4.8,0.,4.8
1979-08-06 15:32:50.410 ,3,1,4.,4.8,0.,4.8,1.,4.8,0.,4.8
1979-08-06 15:32:55.210 ,3,1,5.,4.8,0.,4.8,0.,4.8,0.,4.8
1979-08-06 15:33:00.010 ,3,1,6.,4.8,1.,4.8,2.,4.8,0.,4.8
1979-08-06 15:33:04.810 ,3,1,1.,4.8,0.,4.8,1.,4.8,0.,4.8
1979-08-06 15:33:09.610 ,0,1,4.,4.8,0.,4.8,0.,4.8,0.,4.8
1979-08-06 15:33:14.410 ,0,1,1.,4.8,0.,4.8,0.,4.8,0.,4.8